Weather History for Aurora, NE

Change the Weather History Date:

Monday, September 30, 2013

  Actual Average Record
Temperature  
Mean Temperature 68 °F -  
Max Temperature 83 °F 74 °F 90 °F (1969)
Min Temperature 53 °F 47 °F 25 °F (1984)
Cooling Degree Days 2    
Growing Degree Days 18 (Base 50)    
Moisture  
Dew Point 49 °F    
Average Humidity 56    
Maximum Humidity 80    
Minimum Humidity 30    
Precipitation  
Precipitation 0.00 in - - ()
Sea Level Pressure  
Sea Level Pressure 29.78 in    
Wind  
Wind Speed 11 mph (SSW)    
Max Wind Speed 17 mph    
Max Gust Speed 23 mph    
Visibility 10 miles    
Events      
Averages and records for this station are not official NWS values.
T = Trace of Precipitation, MM = Missing Value Source: NWS Daily Summary

Daily Weather History Graph

Daily Weather History Graph

Search for Another Location

Airport:

Trip Planner

Search our weather history database for the weather conditions in past years. The results will help you decide how hot, cold, wet, or windy it might be!

Date:

Astronomy

Sep. 30, 2013 Rise Set
Actual Time 7:27 AM CDT 7:15 PM CDT
Civil Twilight 7:00 AM CDT 7:42 PM CDT
Nautical Twilight 6:28 AM CDT 8:14 PM CDT
Astronomical Twilight 5:56 AM CDT 8:46 PM CDT
Moon 3:04 AM CDT (9/30) 4:48 PM CDT (9/30)
Length of Visible Light 12h 42m
Length of Day
11h 47m
Waning Crescent, 19% of the Moon is Illuminated
Sep 30
Waning Crescent
Oct 4
New
Oct 11
First Quarter
Oct 18
Full
Oct 26
Last Quarter

Hourly Weather History & Observations

Time (CDT) Temp. Dew Point Humidity Pressure Visibility Wind Dir Wind Speed Gust Speed Precip Events Conditions
12:15 AM 58.3 °F 43.7 °F 58% 29.87 in 10.0 mi South 10.4 mph 16.1 mph N/A   Clear
12:35 AM 57.6 °F 43.9 °F 60% 29.87 in 10.0 mi South 10.4 mph - N/A   Clear
12:55 AM 57.2 °F 44.2 °F 62% 29.87 in 10.0 mi South 10.4 mph - N/A   Clear
1:15 AM 56.5 °F 44.6 °F 64% 29.86 in 10.0 mi South 10.4 mph - N/A   Clear
1:35 AM 55.9 °F 44.8 °F 66% 29.87 in 10.0 mi SSW 8.1 mph - N/A   Clear
1:55 AM 55.8 °F 45.0 °F 67% 29.86 in 10.0 mi South 9.2 mph - N/A   Clear
2:15 AM 55.4 °F 45.5 °F 69% 29.86 in 10.0 mi South 10.4 mph 16.1 mph N/A   Clear
2:35 AM 55.4 °F 45.9 °F 70% 29.86 in 10.0 mi SSW 9.2 mph - N/A   Clear
2:55 AM 55.4 °F 46.4 °F 72% 29.85 in 10.0 mi SSW 10.4 mph - N/A   Clear
3:15 AM 55.2 °F 46.6 °F 73% 29.84 in 10.0 mi SSW 9.2 mph - N/A   Clear
3:35 AM 54.9 °F 46.8 °F 74% 29.84 in 10.0 mi South 8.1 mph - N/A   Clear
3:55 AM 54.5 °F 46.9 °F 76% 29.83 in 10.0 mi South 9.2 mph - N/A   Clear
4:15 AM 54.5 °F 46.9 °F 76% 29.82 in 10.0 mi SSW 9.2 mph - N/A   Clear
4:35 AM 54.1 °F 46.9 °F 77% 29.82 in 10.0 mi SSW 8.1 mph - N/A   Clear
4:55 AM 53.8 °F 47.1 °F 78% 29.82 in 10.0 mi SSW 9.2 mph - N/A   Clear
5:15 AM 53.8 °F 47.3 °F 79% 29.82 in 10.0 mi SSW 8.1 mph - N/A   Clear
5:35 AM 54.0 °F 47.3 °F 78% 29.82 in 10.0 mi SSW 9.2 mph - N/A   Clear
5:55 AM 54.0 °F 47.3 °F 78% 29.82 in 10.0 mi SSW 6.9 mph - N/A   Clear
6:15 AM 53.8 °F 47.3 °F 79% 29.81 in 10.0 mi South 9.2 mph - N/A   Clear
6:35 AM 53.6 °F 47.5 °F 80% 29.82 in 10.0 mi SSW 8.1 mph - N/A   Clear
6:55 AM 54.0 °F 47.5 °F 79% 29.81 in 10.0 mi SSW 12.7 mph - N/A   Clear
7:15 AM 54.0 °F 47.5 °F 79% 29.80 in 10.0 mi SSW 11.5 mph - N/A   Clear
7:35 AM 54.1 °F 47.7 °F 79% 29.81 in 10.0 mi SSW 11.5 mph - N/A   Clear
7:55 AM 54.5 °F 47.7 °F 78% 29.80 in 10.0 mi SSW 12.7 mph 18.4 mph N/A   Clear
8:15 AM 54.7 °F 47.8 °F 78% 29.81 in 10.0 mi SSW 10.4 mph 16.1 mph N/A   Clear
8:35 AM 54.7 °F 47.8 °F 78% 29.81 in 10.0 mi SSW 10.4 mph - N/A   Clear
8:55 AM 55.6 °F 48.2 °F 76% 29.80 in 10.0 mi SSW 11.5 mph 18.4 mph N/A   Clear
9:15 AM 57.6 °F 48.2 °F 71% 29.79 in 10.0 mi SW 13.8 mph 18.4 mph N/A   Clear
9:35 AM 58.6 °F 48.2 °F 68% 29.80 in 10.0 mi SW 11.5 mph - N/A   Clear
9:55 AM 59.5 °F 48.4 °F 67% 29.80 in 10.0 mi SW 10.4 mph 16.1 mph N/A   Clear
10:15 AM 62.4 °F 48.0 °F 59% 29.80 in 10.0 mi SW 11.5 mph 17.3 mph N/A   Clear
10:35 AM 64.9 °F 48.2 °F 55% 29.80 in 10.0 mi SW 13.8 mph 18.4 mph N/A   Clear
10:55 AM 68.0 °F 48.4 °F 49% 29.80 in 10.0 mi SW 12.7 mph 17.3 mph N/A   Clear
11:15 AM 69.4 °F 48.6 °F 47% 29.79 in 10.0 mi SSW 12.7 mph 16.1 mph N/A   Clear
11:35 AM 71.6 °F 48.6 °F 44% 29.79 in 10.0 mi SSW 11.5 mph - N/A   Clear
11:55 AM 73.6 °F 47.7 °F 40% 29.79 in 10.0 mi SSW 10.4 mph - N/A   Clear
12:15 PM 75.6 °F 49.1 °F 39% 29.78 in 10.0 mi SSW 11.5 mph - N/A   Clear
12:35 PM 77.0 °F 48.2 °F 36% 29.77 in 10.0 mi South 13.8 mph - N/A   Clear
12:55 PM 78.1 °F 47.8 °F 34% 29.77 in 10.0 mi SSW 13.8 mph - N/A   Clear
1:15 PM 78.8 °F 48.0 °F 34% 29.77 in 10.0 mi SSW 11.5 mph 17.3 mph N/A   Clear
1:35 PM 80.2 °F 48.0 °F 32% 29.77 in 10.0 mi SSW 13.8 mph - N/A   Clear
1:55 PM 80.6 °F 48.4 °F 32% 29.76 in 10.0 mi SSW 13.8 mph 17.3 mph N/A   Clear
2:15 PM 81.1 °F 48.7 °F 32% 29.75 in 10.0 mi South 11.5 mph - N/A   Clear
2:35 PM 81.5 °F 48.4 °F 31% 29.74 in 10.0 mi South 13.8 mph 18.4 mph N/A   Clear
2:55 PM 81.5 °F 48.6 °F 32% 29.74 in 10.0 mi South 12.7 mph - N/A   Clear
3:15 PM 82.2 °F 50.0 °F 33% 29.73 in 10.0 mi SSW 10.4 mph - N/A   Clear
3:35 PM 82.4 °F 50.0 °F 32% 29.72 in 10.0 mi South 11.5 mph - N/A   Clear
3:55 PM 81.9 °F 50.0 °F 33% 29.72 in 10.0 mi South 15.0 mph 20.7 mph N/A   Clear
4:15 PM 82.0 °F 49.1 °F 32% 29.72 in 10.0 mi South 15.0 mph 21.9 mph N/A   Clear
4:35 PM 82.4 °F 50.0 °F 32% 29.72 in 10.0 mi SSW 13.8 mph - N/A   Clear
4:55 PM 82.2 °F 48.2 °F 30% 29.72 in 10.0 mi South 15.0 mph - N/A   Clear
5:15 PM 81.7 °F 48.2 °F 31% 29.71 in 10.0 mi SSW 13.8 mph - N/A   Clear
5:35 PM 80.8 °F 48.9 °F 33% 29.71 in 10.0 mi South 17.3 mph 23.0 mph N/A   Clear
5:55 PM 81.0 °F 48.6 °F 32% 29.71 in 10.0 mi SSW 13.8 mph 20.7 mph N/A   Clear
6:15 PM 79.9 °F 49.1 °F 34% 29.71 in 10.0 mi South 16.1 mph - N/A   Clear
6:35 PM 77.7 °F 50.2 °F 38% 29.71 in 10.0 mi South 11.5 mph - N/A   Clear
6:55 PM 76.1 °F 50.7 °F 41% 29.72 in 10.0 mi SSW 10.4 mph - N/A   Clear
7:15 PM 73.9 °F 51.1 °F 45% 29.72 in 10.0 mi SSW 8.1 mph - N/A   Clear
7:35 PM 72.1 °F 51.8 °F 49% 29.72 in 10.0 mi South 9.2 mph - N/A   Clear
7:55 PM 71.6 °F 51.8 °F 50% 29.72 in 10.0 mi South 8.1 mph - N/A   Clear
8:15 PM 70.0 °F 51.6 °F 52% 29.73 in 10.0 mi South 8.1 mph - N/A   Clear
8:35 PM 69.3 °F 51.4 °F 53% 29.73 in 10.0 mi South 9.2 mph - N/A   Clear
8:55 PM 69.1 °F 51.4 °F 53% 29.74 in 10.0 mi South 9.2 mph 16.1 mph N/A   Clear
9:15 PM 67.3 °F 51.6 °F 57% 29.74 in 10.0 mi South 9.2 mph - N/A   Clear
9:35 PM 67.5 °F 51.6 °F 57% 29.75 in 10.0 mi South 11.5 mph - N/A   Clear
9:55 PM 67.1 °F 51.8 °F 58% 29.76 in 10.0 mi South 9.2 mph - N/A   Clear
10:15 PM 66.4 °F 51.8 °F 59% 29.76 in 10.0 mi South 8.1 mph - N/A   Clear
10:35 PM 65.5 °F 51.8 °F 61% 29.77 in 10.0 mi South 9.2 mph - N/A   Clear
10:55 PM 64.8 °F 51.8 °F 63% 29.77 in 10.0 mi South 10.4 mph - N/A   Clear
11:15 PM 64.6 °F 51.8 °F 63% 29.77 in 10.0 mi South 11.5 mph - N/A   Clear
11:35 PM 64.4 °F 51.4 °F 63% 29.77 in 10.0 mi South 11.5 mph 16.1 mph N/A   Clear
11:55 PM 63.5 °F 51.4 °F 65% 29.77 in 10.0 mi South 9.2 mph - N/A   Clear